Location: Carri�res
(48.9069°N, 2.1792°E)
Time: 13:28:48
(UTC+00:00)

BREEZE-M DEB (TANK) - Pass Details

Date: 17 January 2021
Orbit: 325 x 13917 km, 49.6° (Epoch: 25 February)

Event Time Altitude Azimuth Distance (km) Brightness Sun altitude
Rises 17:47:00 0° 290° (WNW) 4,049 8.2 -13.1°
Reaches altitude 10° 17:50:57 10° 281° (W) 2,133 6.9 -13.7°
Maximum altitude 17:54:28 29° 218° (SW) 780 4.2 -14.2°
Drops below altitude 10° 17:56:36 10° 152° (SSE) 1,271 4.6 -14.6°
Enters shadow 17:56:58 - 148° (SSE) 1,432 4.8 -14.6°
